Weather History for Barksdale AFB, LA

Change the Weather History Date:

Saturday, July 13, 2013

  Actual Average Record
Temperature  
Mean Temperature 78 °F -  
Max Temperature 91 °F 89 °F 102 °F (2011)
Min Temperature 64 °F 71 °F 64 °F (2013)
Cooling Degree Days 12    
Growing Degree Days 28 (Base 50)    
Moisture  
Dew Point 61 °F    
Average Humidity 57    
Maximum Humidity 83    
Minimum Humidity 31    
Precipitation  
Precipitation 0.00 in - - ()
Sea Level Pressure  
Sea Level Pressure 29.97 in    
Wind  
Wind Speed 3 mph (ENE)    
Max Wind Speed 6 mph    
Max Gust Speed -    
Visibility 10 miles    
Events Rain    
Averages and records for this station are not official NWS values.
T = Trace of Precipitation, MM = Missing Value Source: NWS Daily Summary

Daily Weather History Graph

Daily Weather History Graph

Search for Another Location

Airport:

Trip Planner

Search our weather history database for the weather conditions in past years. The results will help you decide how hot, cold, wet, or windy it might be!

Date:

Astronomy

Jul. 13, 2013 Rise Set
Actual Time 6:17 AM CDT 8:23 PM CDT
Civil Twilight 5:49 AM CDT 8:51 PM CDT
Nautical Twilight 5:15 AM CDT 9:25 PM CDT
Astronomical Twilight 4:38 AM CDT 10:01 PM CDT
Moon 11:13 AM CDT (7/13) 11:26 PM CDT (7/13)
Length of Visible Light 15h 02m
Length of Day
14h 06m
Waxing Crescent, 26% of the Moon is Illuminated
Jul 13
Waxing Crescent
Jul 15
First Quarter
Jul 22
Full
Jul 29
Last Quarter
Aug 6
New

Hourly Weather History & Observations

Time (CDT) Temp. Heat Index Dew Point Humidity Pressure Visibility Wind Dir Wind Speed Gust Speed Precip Events Conditions
12:58 AM 73.8 °F - 59.0 °F 60% 29.98 in 10.0 mi East 3.5 mph - N/A   Clear
1:58 AM 71.6 °F - 58.8 °F 64% 29.96 in 10.0 mi Calm Calm - N/A   Clear
2:58 AM 68.0 °F - 59.2 °F 73% 29.96 in 10.0 mi NE 2.3 mph - N/A   Clear
3:58 AM 65.5 °F - 60.1 °F 83% 29.97 in 10.0 mi Calm Calm - N/A   Clear
4:58 AM 65.1 °F - 59.2 °F 81% 29.98 in 10.0 mi Calm Calm - N/A   Clear
5:58 AM 64.0 °F - 58.3 °F 82% 29.99 in 10.0 mi Calm Calm - N/A   Clear
6:58 AM 64.2 °F - 58.8 °F 83% 30.00 in 10.0 mi NNW 5.8 mph - N/A   Clear
7:58 AM 68.7 °F - 61.0 °F 76% 30.02 in 10.0 mi NNE 3.5 mph - N/A   Clear
8:58 AM 76.1 °F - 63.3 °F 64% 30.01 in 10.0 mi Variable 2.3 mph - N/A   Clear
9:58 AM 81.7 °F 82.9 °F 63.1 °F 53% 30.01 in 10.0 mi Variable 4.6 mph - N/A   Clear
10:58 AM 85.6 °F 85.2 °F 59.5 °F 41% 30.01 in 10.0 mi Variable 4.6 mph - N/A   Clear
11:58 AM 87.3 °F 86.5 °F 58.5 °F 38% 30.01 in 10.0 mi Variable 1.2 mph - N/A   Clear
12:58 PM 88.3 °F 87.6 °F 58.6 °F 37% 29.99 in 10.0 mi Variable 3.5 mph - N/A   Clear
1:58 PM 90.5 °F 90.1 °F 59.9 °F 36% 29.98 in 10.0 mi Variable 2.3 mph - N/A   Clear
2:58 PM 89.8 °F 88.6 °F 57.6 °F 34% 29.95 in 10.0 mi Variable 2.3 mph - N/A   Partly Cloudy
3:58 PM 90.9 °F 89.2 °F 56.7 °F 31% 29.94 in 10.0 mi Variable 4.6 mph - N/A   Clear
4:58 PM 91.6 °F 91.0 °F 59.7 °F 34% 29.93 in 10.0 mi NNE 5.8 mph - N/A   Clear
5:58 PM 88.9 °F 88.8 °F 61.0 °F 39% 29.93 in 10.0 mi ESE 3.5 mph - N/A   Clear
6:58 PM 84.6 °F 86.6 °F 65.8 °F 53% 29.92 in 10.0 mi ESE 3.5 mph - N/A   Clear
8:02 PM 80.6 °F 82.7 °F 66.2 °F 61% 29.92 in 10.0 mi ESE 3.5 mph - N/A Rain Light Rain
8:11 PM 80.6 °F 82.7 °F 66.2 °F 61% 29.92 in 10.0 mi ESE 3.5 mph - N/A   Partly Cloudy
8:58 PM 80.6 °F 82.4 °F 65.1 °F 59% 29.93 in 10.0 mi East 3.5 mph - 0.00 in   Clear
10:58 PM 76.5 °F - 66.9 °F 72% 29.96 in 10.0 mi East 3.5 mph - N/A   Clear